Location: Wharf Road Observatory
(44.7802°N, 65.6070°W)
Time: 13:41:47
(UTC-04:00)

SO-50 - Visible Passes

Search period start: 28 January 2023 00:00
Search period end: 07 February 2023 00:00
Orbit: 584 x 695 km, 64.6° (Epoch: 28 January)

Date Brightness Start Highest point End Pass type
(mag) Time Alt. Az. Time Alt. Az. Time Alt. Az.
29 Jan ? 18:06:04 10° NW 18:07:38 11° NNW 18:09:10 10° N visible
03 Feb ? 20:09:47 10° N 20:09:58 10° N 20:09:58 10° N visible
04 Feb ? 20:33:01 10° NNW 20:33:22 11° N 20:33:22 11° N visible
05 Feb ? 19:18:00 10° N 19:19:13 11° NNE 19:19:15 11° NNE visible
05 Feb ? 20:56:33 10° NNW 20:56:49 11° NNW 20:56:49 11° NNW visible
06 Feb ? 19:40:49 10° N 19:42:43 15° NNE 19:42:43 15° NNE visible
